Terug naar catalogus

STARLINK-6324

ActiefCommunicatieVLEO
NORAD 57353·PAYLOAD·🇺🇸 United States

Gelanceerd Jul 16, 2023 vanaf Cape Canaveral Space Force Station

Loading…

Volgende Passages (komende 24 uur)

TLE

VersSource: CelesTrak SupGP

Epoch: Sep 14, 2026, 20:54 UTC

1 57353C 23099AB  26257.87131944  .00017922  00000+0  64926-3 0  2572
2 57353  42.9995 260.5527 0001479 260.7570 319.6688 15.27563278    16

Volg STARLINK-6324 in realtime met AllMySat

Download on the App Store